• In India
  • List of Countries
  • For 7 days
  • Water Temperature
  • Satellite Maps
  • Weather Map
  • Weather Widgets
  • user-avatar
    Login

    Hourly Weather Aldana

    Today, 27 May, Sunday

    Time Temperature Precipitation Wind Pressure Humidity
    00:00 +9°C° 0.1 mm 1 mps 526 mmHg 85%
    01:00 +8°C° 0 mm 2 mps 526 mmHg 86%
    02:00 +9°C° 0.1 mm 1 mps 526 mmHg 86%
    03:00 +9°C° 0.1 mm 1 mps 526 mmHg 87%
    04:00 +9°C° 0.1 mm 1 mps 526 mmHg 87%
    05:00 +9°C° 0.2 mm 1 mps 526 mmHg 86%
    06:00 +9°C° 0.2 mm 1 mps 526 mmHg 85%
    07:00 +10°C° 0 mm 1 mps 527 mmHg 84%
    08:00 +10°C° 0.2 mm 1 mps 527 mmHg 82%
    09:00 +11°C° 0.2 mm 1 mps 528 mmHg 81%
    10:00 +10°C° 0.2 mm 2 mps 528 mmHg 79%
    11:00 +12°C° 0.4 mm 2 mps 528 mmHg 78%
    12:00 +12°C° 0.4 mm 2 mps 528 mmHg 77%
    13:00 +12°C° 0.4 mm 2 mps 528 mmHg 76%
    14:00 +12°C° 0.4 mm 1 mps 528 mmHg 77%
    15:00 +12°C° 0.4 mm 1 mps 528 mmHg 78%
    16:00 +12°C° 0.4 mm 1 mps 527 mmHg 78%
    17:00 +11°C° 0.2 mm 1 mps 527 mmHg 82%
    18:00 +10°C° 0.2 mm 1 mps 526 mmHg 86%
    19:00 +9°C° 0.2 mm 1 mps 526 mmHg 90%
    20:00 +8°C° 0 mm 1 mps 526 mmHg 88%
    21:00 +7°C° 0 mm 2 mps 526 mmHg 87%
    22:00 +7°C° 0 mm 2 mps 526 mmHg 86%
    23:00 +7°C° 0 mm 2 mps 526 mmHg 86%

    Tomorrow, 28 May, Monday

    Time Temperature Precipitation Wind Pressure Humidity
    00:00 +7°C° 0 mm 2 mps 526 mmHg 85%
    01:00 +7°C° 0 mm 2 mps 526 mmHg 85%
    02:00 +7°C° 0 mm 2 mps 526 mmHg 85%
    03:00 +7°C° 0 mm 2 mps 525 mmHg 85%
    04:00 +8°C° 0 mm 1 mps 525 mmHg 85%
    05:00 +8°C° 0 mm 1 mps 526 mmHg 84%
    06:00 +9°C° 0 mm 1 mps 526 mmHg 84%
    07:00 +9°C° 0 mm 1 mps 527 mmHg 83%
    08:00 +10°C° 0.1 mm 1 mps 527 mmHg 80%
    09:00 +10°C° 0.1 mm 2 mps 528 mmHg 76%
    10:00 +12°C° 0.1 mm 2 mps 529 mmHg 73%
    11:00 +13°C° 0.3 mm 2 mps 529 mmHg 73%
    12:00 +13°C° 0.3 mm 2 mps 529 mmHg 72%
    13:00 +13°C° 0.3 mm 2 mps 529 mmHg 72%
    14:00 +13°C° 0.8 mm 1 mps 528 mmHg 73%
    15:00 +13°C° 0.8 mm 1 mps 528 mmHg 75%
    16:00 +12°C° 0.8 mm 1 mps 527 mmHg 77%
    17:00 +11°C° 2.2 mm 1 mps 527 mmHg 82%
    18:00 +10°C° 2.2 mm 1 mps 527 mmHg 87%
    19:00 +9°C° 2.2 mm 1 mps 526 mmHg 92%
    20:00 +9°C° 1.5 mm 1 mps 527 mmHg 90%
    21:00 +9°C° 1.5 mm 1 mps 527 mmHg 89%
    22:00 +9°C° 1.5 mm 1 mps 527 mmHg 88%
    23:00 +9°C° 0.4 mm 1 mps 527 mmHg 88%

    Day after tomorrow, 29 May, Tuesday

    Time Temperature Precipitation Wind Pressure Humidity
    00:00 +8°C° 0.4 mm 1 mps 527 mmHg 87%
    01:00 +8°C° 0.4 mm 1 mps 526 mmHg 86%
    02:00 +8°C° 0.1 mm 1 mps 526 mmHg 85%
    03:00 +8°C° 0.1 mm 1 mps 526 mmHg 85%
    04:00 +8°C° 0.1 mm 1 mps 525 mmHg 84%
    05:00 +8°C° 0.1 mm 1 mps 526 mmHg 83%
    06:00 +9°C° 0.1 mm 1 mps 526 mmHg 82%
    07:00 +9°C° 0.1 mm 1 mps 527 mmHg 81%
    08:00 +11°C° 0.1 mm 1 mps 528 mmHg 77%
    09:00 +12°C° 0.1 mm 1 mps 529 mmHg 74%
    10:00 +13°C° 0.1 mm 1 mps 530 mmHg 70%
    11:00 +13°C° 0.4 mm 1 mps 529 mmHg 70%
    12:00 +13°C° 0.4 mm 1 mps 529 mmHg 71%
    13:00 +13°C° 0.4 mm 1 mps 529 mmHg 71%
    14:00 +13°C° 0.7 mm 1 mps 528 mmHg 73%
    15:00 +13°C° 0.7 mm 1 mps 528 mmHg 74%
    16:00 +13°C° 0.7 mm 1 mps 527 mmHg 76%
    17:00 +11°C° 0.9 mm 1 mps 527 mmHg 82%
    18:00 +10°C° 0.9 mm 1 mps 526 mmHg 87%
    19:00 +8°C° 0.9 mm 0 mps 525 mmHg 93%
    20:00 +8°C° 0.4 mm 0 mps 526 mmHg 92%
    21:00 +8°C° 0.4 mm 1 mps 526 mmHg 91%
    22:00 +8°C° 0.4 mm 1 mps 526 mmHg 90%
    23:00 +8°C° 0.1 mm 1 mps 526 mmHg 89%

    30 May, Wednesday

    Time Temperature Precipitation Wind Pressure Humidity
    00:00 +8°C° 0.1 mm 1 mps 526 mmHg 88%
    01:00 +8°C° 0.1 mm 1 mps 526 mmHg 87%
    02:00 +8°C° 0.1 mm 1 mps 526 mmHg 87%
    03:00 +8°C° 0.1 mm 1 mps 525 mmHg 86%
    04:00 +8°C° 0.1 mm 1 mps 525 mmHg 86%
    05:00 +8°C° 0.1 mm 1 mps 525 mmHg 83%
    06:00 +9°C° 0.1 mm 1 mps 526 mmHg 81%
    07:00 +9°C° 0.1 mm 1 mps 527 mmHg 79%
    08:00 +11°C° 0 mm 1 mps 528 mmHg 73%
    09:00 +13°C° 0 mm 1 mps 529 mmHg 68%
    10:00 +14°C° 0 mm 1 mps 530 mmHg 63%
    11:00 +14°C° 0.5 mm 1 mps 529 mmHg 66%
    12:00 +14°C° 0.5 mm 1 mps 529 mmHg 68%
    13:00 +13°C° 0.5 mm 1 mps 528 mmHg 70%
    14:00 +13°C° 1.3 mm 1 mps 528 mmHg 73%
    15:00 +12°C° 1.3 mm 1 mps 527 mmHg 76%
    16:00 +12°C° 1.3 mm 1 mps 526 mmHg 79%
    17:00 +11°C° 0.6 mm 1 mps 526 mmHg 84%
    18:00 +9°C° 0.6 mm 0 mps 525 mmHg 88%
    19:00 +8°C° 0.6 mm 0 mps 525 mmHg 93%
    20:00 +8°C° 0.2 mm 0 mps 525 mmHg 92%
    21:00 +9°C° 0.2 mm 1 mps 526 mmHg 92%
    22:00 +9°C° 0.2 mm 1 mps 526 mmHg 91%
    23:00 +9°C° 0.1 mm 1 mps 526 mmHg 90%

    31 May, Thursday

    Time Temperature Precipitation Wind Pressure Humidity
    00:00 +8°C° 0.1 mm 1 mps 526 mmHg 90%
    01:00 +8°C° 0.1 mm 1 mps 525 mmHg 89%
    02:00 +8°C° 0.1 mm 1 mps 525 mmHg 88%
    03:00 +8°C° 0.1 mm 1 mps 525 mmHg 87%
    04:00 +7°C° 0.1 mm 1 mps 524 mmHg 87%
    05:00 +7°C° 0 mm 2 mps 525 mmHg 84%
    06:00 +8°C° 0 mm 2 mps 526 mmHg 81%
    07:00 +8°C° 0 mm 2 mps 526 mmHg 79%
    08:00 +10°C° 0 mm 2 mps 527 mmHg 74%
    09:00 +12°C° 0 mm 2 mps 528 mmHg 70%
    10:00 +14°C° 0 mm 2 mps 530 mmHg 65%
    11:00 +14°C° 0.3 mm 2 mps 529 mmHg 66%
    12:00 +14°C° 0.3 mm 2 mps 529 mmHg 66%
    13:00 +14°C° 0.3 mm 2 mps 528 mmHg 67%
    14:00 +14°C° 0.4 mm 2 mps 528 mmHg 69%
    15:00 +14°C° 0.4 mm 1 mps 527 mmHg 71%
    16:00 +13°C° 0.4 mm 1 mps 526 mmHg 73%
    17:00 +12°C° 0.3 mm 1 mps 526 mmHg 79%
    18:00 +10°C° 0.3 mm 1 mps 526 mmHg 85%
    19:00 +9°C° 0.3 mm 1 mps 525 mmHg 90%
    20:00 +9°C° 0.4 mm 1 mps 525 mmHg 90%
    21:00 +8°C° 0.4 mm 1 mps 525 mmHg 89%
    22:00 +7°C° 0.4 mm 2 mps 526 mmHg 88%
    23:00 +7°C° 0.1 mm 2 mps 525 mmHg 88%

    1 June, Friday

    Time Temperature Precipitation Wind Pressure Humidity
    00:00 +8°C° 0.1 mm 1 mps 525 mmHg 87%
    01:00 +8°C° 0.1 mm 1 mps 525 mmHg 86%
    02:00 +8°C° 0.3 mm 1 mps 525 mmHg 86%
    03:00 +8°C° 0.3 mm 1 mps 525 mmHg 86%
    04:00 +8°C° 0.3 mm 1 mps 525 mmHg 86%
    05:00 +9°C° 0.2 mm 1 mps 525 mmHg 85%
    06:00 +9°C° 0.2 mm 1 mps 526 mmHg 84%
    07:00 +10°C° 0.2 mm 1 mps 526 mmHg 83%
    08:00 +11°C° 0.1 mm 1 mps 527 mmHg 79%
    09:00 +12°C° 0.1 mm 2 mps 528 mmHg 75%
    10:00 +13°C° 0.1 mm 2 mps 529 mmHg 71%
    11:00 +13°C° 0.3 mm 2 mps 529 mmHg 71%
    12:00 +13°C° 0.3 mm 2 mps 528 mmHg 71%
    13:00 +13°C° 0.3 mm 2 mps 528 mmHg 71%
    14:00 +13°C° 0.4 mm 2 mps 528 mmHg 71%
    15:00 +13°C° 0.4 mm 2 mps 527 mmHg 72%
    16:00 +13°C° 0.4 mm 1 mps 527 mmHg 72%
    17:00 +12°C° 0.3 mm 1 mps 526 mmHg 78%
    18:00 +11°C° 0.3 mm 1 mps 526 mmHg 83%
    19:00 +9°C° 0.3 mm 1 mps 526 mmHg 88%
    20:00 +8°C° 0.1 mm 2 mps 526 mmHg 88%
    21:00 +8°C° 0.1 mm 2 mps 526 mmHg 88%
    22:00 +7°C° 0.1 mm 2 mps 526 mmHg 87%
    23:00 +7°C° 0.1 mm 2 mps 526 mmHg 86%
    Show more